Location: Borovka
(49.7741°N, 14.5280°E)
Time: 16:10:04
(UTC+00:00)

Thor Agena Rocket - Pass Details

Date: 19 February 2026
Orbit: 755 x 801 km, 99.1° (Epoch: 8 March)

Event Time Altitude Azimuth Distance (km) Brightness Sun altitude
Rises 17:37:44 0° 200° (SSW) 3,235 7.1 -12.0°
Reaches altitude 10° 17:40:26 10° 214° (SW) 2,321 6.5 -12.4°
Maximum altitude 17:44:33 24° 267° (W) 1,580 6.2 -13.1°
Drops below altitude 10° 17:48:43 10° 321° (NW) 2,359 6.6 -13.8°
Sets 17:51:30 0° 335° (NNW) 3,301 7.1 -14.2°
